TimePDT,TemperatureF,Dew PointF,Humidity,Sea Level PressureIn,VisibilityMPH,Wind Direction,Wind SpeedMPH,Gust SpeedMPH,PrecipitationIn,Events,Conditions,WindDirDegrees,DateUTC
12:53 AM,46.0,39.9,79,29.87,10.0,Calm,Calm,-,0.00,,Overcast,0,2012-10-24 07:53:00
1:53 AM,46.0,39.9,79,29.86,10.0,Calm,Calm,-,N/A,,Overcast,0,2012-10-24 08:53:00
2:53 AM,45.0,41.0,86,29.88,10.0,Calm,Calm,-,0.00,Rain,Light Rain,0,2012-10-24 09:53:00
3:53 AM,45.0,41.0,86,29.87,10.0,Calm,Calm,-,0.03,Rain,Light Rain,0,2012-10-24 10:53:00
4:53 AM,44.1,41.0,89,29.87,10.0,Calm,Calm,-,0.01,Rain,Light Rain,0,2012-10-24 11:53:00
5:53 AM,44.1,41.0,89,29.88,10.0,Calm,Calm,-,0.00,,Overcast,0,2012-10-24 12:53:00
6:53 AM,45.0,39.9,82,29.90,10.0,Calm,Calm,-,0.00,Rain,Light Rain,0,2012-10-24 13:53:00
7:53 AM,45.0,41.0,86,29.91,10.0,Calm,Calm,-,0.00,,Overcast,0,2012-10-24 14:53:00
8:53 AM,46.0,39.9,79,29.93,10.0,Calm,Calm,-,N/A,,Overcast,0,2012-10-24 15:53:00
9:53 AM,46.0,39.9,79,29.94,10.0,ESE,4.6,-,0.00,,Overcast,110,2012-10-24 16:53:00
10:53 AM,48.0,42.1,80,29.95,10.0,SE,3.5,-,N/A,,Overcast,140,2012-10-24 17:53:00
11:53 AM,48.9,42.1,77,29.96,10.0,Calm,Calm,-,N/A,,Overcast,0,2012-10-24 18:53:00
12:53 PM,51.1,41.0,68,29.97,10.0,SSE,3.5,-,0.00,,Overcast,160,2012-10-24 19:53:00
1:53 PM,50.0,39.2,66,29.98,10.0,SSW,5.8,-,N/A,,Mostly Cloudy,200,2012-10-24 20:53:00
2:53 PM,50.0,39.0,66,29.99,10.0,SSE,5.8,-,N/A,,Mostly Cloudy,160,2012-10-24 21:53:00
3:53 PM,51.1,37.9,61,30.01,10.0,Calm,Calm,-,N/A,,Mostly Cloudy,0,2012-10-24 22:53:00
4:53 PM,48.0,41.0,77,30.02,5.0,East,5.8,-,0.02,Rain,Light Rain,100,2012-10-24 23:53:00
5:53 PM,48.0,41.0,77,30.04,10.0,Calm,Calm,-,0.00,Rain,Light Rain,0,2012-10-25 00:53:00
6:53 PM,46.9,42.1,83,30.07,10.0,Calm,Calm,-,0.02,Rain,Light Rain,0,2012-10-25 01:53:00
7:53 PM,46.9,43.0,86,30.09,10.0,East,5.8,-,0.00,,Overcast,100,2012-10-25 02:53:00
8:53 PM,46.4,42.8,87,30.11,10.0,East,4.6,-,N/A,,Overcast,90,2012-10-25 03:53:00
9:53 PM,45.0,42.1,90,30.14,6.0,SW,3.5,-,0.03,Rain,Light Rain,230,2012-10-25 04:53:00
10:53 PM,45.0,43.0,93,30.16,9.0,ESE,3.5,-,0.05,Rain,Light Rain,110,2012-10-25 05:53:00
11:53 PM,45.0,42.1,90,30.17,10.0,SE,3.5,-,0.03,Rain,Light Rain,130,2012-10-25 06:53:00